Simultaneous Nadir Overpasses (SNOs) Predictions

Prediction of SNOs between GOES-15 and NPP Satellite Orbit:

Table of predicted SNOs for the next 14.0 days since TLE Epoch: 5/18/2018
Index Date Time (GOES-15) GOES-15 Lat,Lon NPP Lat,Lon Distance(km) Time Diff (sec)
1 05/18/2018 22:24:00 -0.06,-135.35 0.14,-134.44 103.77 80
2 05/21/2018 10:24:22 0.06,-135.26 0.06,-135.17 10.92 80
3 05/23/2018 22:27:34 -0.06,-135.23 -0.22,-135.94 80.90 80
4 05/24/2018 22:11:30 -0.07,-135.21 0.80,-131.41 433.13 80
5 05/26/2018 10:30:37 0.05,-135.14 0.41,-136.67 174.93 80
6 05/27/2018 10:14:33 0.05,-135.11 -0.61,-132.14 338.78 80
7 05/28/2018 22:33:49 -0.03,-135.09 -0.56,-137.45 267.94 80
8 05/29/2018 22:17:44 -0.04,-135.06 0.47,-132.92 245.48 80
9 05/31/2018 10:36:52 0.02,-134.99 0.75,-138.18 363.59 80
10 06/01/2018 10:20:47 0.03,-134.96 -0.28,-133.65 149.44 80




NCC Satellite Simultaneous Nadir Overpasses (SNOs) Prediction Service
